Time,TemperatureF,DewpointF,PressureIn,WindDirection,WindDirectionDegrees,WindSpeedMPH,WindSpeedGustMPH,Humidity,HourlyPrecipIn,Conditions,Clouds,dailyrainin,SoftwareType,DateUTC
2013-01-21 00:04:00,66.0,63.0,30.06,NE,49,3.0,6.0,89,-99.99,,,-99.99,,2013-01-21 05:04:00,
2013-01-21 00:13:00,66.0,63.0,30.06,NE,49,3.0,6.0,89,-99.99,,,-99.99,,2013-01-21 05:13:00,
2013-01-21 00:22:00,66.0,63.0,30.06,NE,49,3.0,6.0,89,-99.99,,,-99.99,,2013-01-21 05:22:00,
2013-01-21 00:34:00,67.0,63.0,30.06,NE,38,4.0,6.0,89,-99.99,,,-99.99,,2013-01-21 05:34:00,
2013-01-21 00:42:00,67.0,63.0,30.05,NE,49,3.0,6.0,89,-99.99,,,-99.99,,2013-01-21 05:42:00,
2013-01-21 00:53:00,67.0,63.0,30.05,NE,49,3.0,6.0,89,-99.99,,,-99.99,,2013-01-21 05:53:00,
2013-01-21 01:03:00,66.0,63.0,30.05,NNE,33,3.0,6.0,91,-99.99,,,-99.99,,2013-01-21 06:03:00,
2013-01-21 01:13:00,66.0,63.0,30.05,NNE,33,3.0,6.0,91,-99.99,,,-99.99,,2013-01-21 06:13:00,
2013-01-21 01:23:00,66.0,63.0,30.05,ESE,113,3.0,5.0,91,-99.99,,,-99.99,,2013-01-21 06:23:00,
2013-01-21 01:33:00,66.0,63.0,30.05,ESE,113,3.0,5.0,91,-99.99,,,-99.99,,2013-01-21 06:33:00,
2013-01-21 01:43:00,65.0,63.0,30.05,NE,44,3.0,6.0,92,-99.99,,,-99.99,,2013-01-21 06:43:00,
2013-01-21 01:53:00,65.0,63.0,30.05,NE,42,3.0,6.0,93,-99.99,,,-99.99,,2013-01-21 06:53:00,
2013-01-21 02:03:00,65.0,64.0,30.05,NE,39,2.0,4.0,93,-99.99,,,-99.99,,2013-01-21 07:03:00,
2013-01-21 02:13:00,65.0,64.0,30.05,NE,39,2.0,4.0,93,-99.99,,,-99.99,,2013-01-21 07:13:00,
2013-01-21 02:23:00,65.0,64.0,30.04,NE,38,3.0,6.0,94,-99.99,,,-99.99,,2013-01-21 07:23:00,
2013-01-21 02:33:00,65.0,64.0,30.04,NE,38,3.0,6.0,94,-99.99,,,-99.99,,2013-01-21 07:33:00,
2013-01-21 02:42:00,65.0,63.0,30.04,ENE,57,3.0,6.0,94,-99.99,,,-99.99,,2013-01-21 07:42:00,
2013-01-21 02:53:00,65.0,63.0,30.04,ENE,57,3.0,6.0,94,-99.99,,,-99.99,,2013-01-21 07:53:00,
2013-01-21 03:03:00,64.0,63.0,30.04,SSE,154,2.0,5.0,95,-99.99,,,-99.99,,2013-01-21 08:03:00,
2013-01-21 03:14:00,64.0,63.0,30.04,SSE,154,2.0,5.0,95,-99.99,,,-99.99,,2013-01-21 08:14:00,
2013-01-21 03:23:00,64.0,63.0,30.03,ESE,108,3.0,6.0,96,-99.99,,,-99.99,,2013-01-21 08:23:00,
2013-01-21 03:33:00,64.0,63.0,30.03,ESE,108,3.0,6.0,96,-99.99,,,-99.99,,2013-01-21 08:33:00,
2013-01-21 03:42:00,64.0,63.0,30.03,East,100,3.0,5.0,96,-99.99,,,-99.99,,2013-01-21 08:42:00,
2013-01-21 03:53:00,64.0,63.0,30.03,East,100,3.0,5.0,96,-99.99,,,-99.99,,2013-01-21 08:53:00,
2013-01-21 04:03:00,63.0,62.0,30.03,ESE,119,2.0,4.0,96,-99.99,,,-99.99,,2013-01-21 09:03:00,
2013-01-21 04:13:00,63.0,62.0,30.03,ESE,119,2.0,4.0,96,-99.99,,,-99.99,,2013-01-21 09:13:00,
2013-01-21 04:23:00,63.0,62.0,30.02,NE,48,2.0,5.0,97,-99.99,,,-99.99,,2013-01-21 09:23:00,
2013-01-21 04:33:00,63.0,62.0,30.02,NE,48,2.0,5.0,97,-99.99,,,-99.99,,2013-01-21 09:33:00,
2013-01-21 04:42:00,63.0,62.0,30.02,NE,41,2.0,4.0,97,-99.99,,,-99.99,,2013-01-21 09:42:00,
2013-01-21 04:53:00,63.0,62.0,30.02,NE,41,2.0,4.0,97,-99.99,,,-99.99,,2013-01-21 09:53:00,
2013-01-21 05:02:00,63.0,62.0,30.01,NE,51,2.0,5.0,97,-99.99,,,-99.99,,2013-01-21 10:02:00,
2013-01-21 05:12:00,63.0,62.0,30.01,NE,51,2.0,5.0,97,-99.99,,,-99.99,,2013-01-21 10:12:00,
2013-01-21 05:23:00,63.0,62.0,30.01,NE,51,2.0,4.0,97,-99.99,,,-99.99,,2013-01-21 10:23:00,
2013-01-21 05:33:00,63.0,62.0,30.01,NE,52,2.0,4.0,97,-99.99,,,-99.99,,2013-01-21 10:33:00,
2013-01-21 05:43:00,63.0,62.0,30.01,NE,51,2.0,4.0,97,-99.99,,,-99.99,,2013-01-21 10:43:00,
2013-01-21 05:53:00,63.0,62.0,30.01,NE,51,2.0,4.0,97,-99.99,,,-99.99,,2013-01-21 10:53:00,
2013-01-21 06:03:00,63.0,62.0,30.01,ENE,57,1.0,3.0,97,-99.99,,,-99.99,,2013-01-21 11:03:00,
2013-01-21 06:13:00,63.0,62.0,30.01,ENE,57,1.0,3.0,97,-99.99,,,-99.99,,2013-01-21 11:13:00,
2013-01-21 06:23:00,63.0,62.0,30.01,ENE,57,1.0,3.0,97,-99.99,,,-99.99,,2013-01-21 11:23:00,
2013-01-21 06:33:00,63.0,63.0,30.01,East,85,2.0,3.0,97,-99.99,,,-99.99,,2013-01-21 11:33:00,
2013-01-21 06:43:00,64.0,63.0,30.02,ENE,76,2.0,4.0,97,-99.99,,,-99.99,,2013-01-21 11:43:00,
2013-01-21 06:53:00,64.0,63.0,30.02,ENE,76,2.0,4.0,97,-99.99,,,-99.99,,2013-01-21 11:53:00,
2013-01-21 07:03:00,64.0,63.0,30.02,ENE,76,2.0,4.0,97,-99.99,,,-99.99,,2013-01-21 12:03:00,
2013-01-21 07:12:00,64.0,63.0,30.02,ENE,77,1.0,4.0,97,-99.99,,,-99.99,,2013-01-21 12:12:00,
2013-01-21 07:22:00,64.0,63.0,30.03,ESE,117,1.0,3.0,97,-99.99,,,-99.99,,2013-01-21 12:22:00,
2013-01-21 07:33:00,64.0,63.0,30.03,ESE,117,1.0,3.0,97,-99.99,,,-99.99,,2013-01-21 12:33:00,
2013-01-21 07:42:00,64.0,63.0,30.03,East,96,1.0,2.0,97,-99.99,,,-99.99,,2013-01-21 12:42:00,
2013-01-21 07:53:00,64.0,63.0,30.03,East,96,1.0,2.0,97,-99.99,,,-99.99,,2013-01-21 12:53:00,
2013-01-21 08:03:00,64.0,63.0,30.03,East,96,1.0,2.0,97,-99.99,,,-99.99,,2013-01-21 13:03:00,
2013-01-21 08:13:00,64.0,63.0,30.04,SE,137,2.0,5.0,98,-99.99,,,-99.99,,2013-01-21 13:13:00,
2013-01-21 08:23:00,64.0,63.0,30.04,SE,137,2.0,5.0,98,-99.99,,,-99.99,,2013-01-21 13:23:00,
2013-01-21 08:33:00,64.0,64.0,30.04,SE,129,3.0,4.0,98,-99.99,,,-99.99,,2013-01-21 13:33:00,
2013-01-21 08:43:00,64.0,64.0,30.05,ESE,114,3.0,6.0,98,-99.99,,,-99.99,,2013-01-21 13:43:00,
2013-01-21 08:54:00,64.0,64.0,30.05,ESE,114,3.0,6.0,98,-99.99,,,-99.99,,2013-01-21 13:54:00,
2013-01-21 09:03:00,64.0,64.0,30.05,ESE,114,3.0,6.0,98,-99.99,,,-99.99,,2013-01-21 14:03:00,
2013-01-21 09:13:00,65.0,65.0,30.05,ESE,121,2.0,4.0,98,-99.99,,,-99.99,,2013-01-21 14:13:00,
2013-01-21 09:23:00,65.0,65.0,30.05,ESE,121,2.0,4.0,98,-99.99,,,-99.99,,2013-01-21 14:23:00,
2013-01-21 09:33:00,65.0,65.0,30.07,SW,230,2.0,3.0,98,-99.99,,,-99.99,,2013-01-21 14:33:00,
2013-01-21 09:43:00,66.0,65.0,30.07,WNW,299,3.0,5.0,98,-99.99,,,-99.99,,2013-01-21 14:43:00,
2013-01-21 09:54:00,66.0,65.0,30.07,WNW,299,3.0,5.0,98,-99.99,,,-99.99,,2013-01-21 14:54:00,
2013-01-21 10:03:00,66.0,65.0,30.07,WNW,299,3.0,5.0,98,-99.99,,,-99.99,,2013-01-21 15:03:00,
2013-01-21 10:13:00,66.0,65.0,30.09,WNW,285,4.0,7.0,97,-99.99,,,-99.99,,2013-01-21 15:13:00,
2013-01-21 10:23:00,66.0,65.0,30.09,WNW,285,4.0,7.0,97,-99.99,,,-99.99,,2013-01-21 15:23:00,
2013-01-21 10:33:00,66.0,65.0,30.09,WNW,286,3.0,5.0,97,-99.99,,,-99.99,,2013-01-21 15:33:00,
2013-01-21 10:43:00,66.0,65.0,30.09,WSW,257,3.0,5.0,96,-99.99,,,-99.99,,2013-01-21 15:43:00,
2013-01-21 10:53:00,66.0,65.0,30.09,WSW,257,3.0,5.0,96,-99.99,,,-99.99,,2013-01-21 15:53:00,
2013-01-21 11:04:00,66.0,65.0,30.09,WSW,257,3.0,5.0,96,-99.99,,,-99.99,,2013-01-21 16:04:00,
2013-01-21 11:13:00,68.0,65.0,30.09,WSW,243,3.0,8.0,91,-99.99,,,-99.99,,2013-01-21 16:13:00,
2013-01-21 11:23:00,68.0,65.0,30.09,WSW,243,3.0,8.0,91,-99.99,,,-99.99,,2013-01-21 16:23:00,
2013-01-21 11:33:00,68.0,65.0,30.09,WSW,243,4.0,8.0,89,-99.99,,,-99.99,,2013-01-21 16:33:00,
2013-01-21 11:43:00,68.0,65.0,30.09,WSW,243,4.0,8.0,89,-99.99,,,-99.99,,2013-01-21 16:43:00,
2013-01-21 11:53:00,69.0,65.0,30.08,SW,230,3.0,6.0,87,-99.99,,,-99.99,,2013-01-21 16:53:00,
2013-01-21 12:03:00,69.0,65.0,30.08,SW,230,3.0,6.0,87,-99.99,,,-99.99,,2013-01-21 17:03:00,
2013-01-21 12:13:00,70.0,65.0,30.07,WSW,244,5.0,9.0,84,-99.99,,,-99.99,,2013-01-21 17:13:00,
2013-01-21 12:23:00,70.0,65.0,30.07,WSW,244,5.0,9.0,84,-99.99,,,-99.99,,2013-01-21 17:23:00,
2013-01-21 12:33:00,71.0,66.0,30.07,SW,234,6.0,9.0,84,-99.99,,,-99.99,,2013-01-21 17:33:00,
2013-01-21 12:43:00,71.0,66.0,30.07,SW,234,6.0,9.0,84,-99.99,,,-99.99,,2013-01-21 17:43:00,
2013-01-21 12:53:00,72.0,66.0,30.05,WSW,247,5.0,8.0,80,-99.99,,,-99.99,,2013-01-21 17:53:00,
2013-01-21 13:03:00,72.0,66.0,30.05,WSW,247,5.0,8.0,80,-99.99,,,-99.99,,2013-01-21 18:03:00,
2013-01-21 13:12:00,75.0,66.0,30.04,WSW,247,6.0,10.0,72,-99.99,,,-99.99,,2013-01-21 18:12:00,
2013-01-21 13:23:00,75.0,66.0,30.04,WSW,247,6.0,10.0,72,-99.99,,,-99.99,,2013-01-21 18:23:00,
2013-01-21 13:33:00,75.0,66.0,30.03,West,280,4.0,9.0,71,-99.99,,,-99.99,,2013-01-21 18:33:00,
2013-01-21 13:43:00,75.0,66.0,30.03,West,280,4.0,9.0,71,-99.99,,,-99.99,,2013-01-21 18:43:00,
2013-01-21 13:53:00,74.0,65.0,30.02,WNW,293,6.0,12.0,73,-99.99,,,-99.99,,2013-01-21 18:53:00,
2013-01-21 14:03:00,74.0,65.0,30.02,WNW,293,6.0,12.0,73,-99.99,,,-99.99,,2013-01-21 19:03:00,
2013-01-21 14:13:00,75.0,64.0,30.01,WNW,288,6.0,13.0,68,-99.99,,,-99.99,,2013-01-21 19:13:00,
2013-01-21 14:22:00,75.0,64.0,30.01,WNW,288,6.0,13.0,68,-99.99,,,-99.99,,2013-01-21 19:22:00,
2013-01-21 14:33:00,75.0,64.0,30.01,WNW,285,6.0,12.0,68,-99.99,,,-99.99,,2013-01-21 19:33:00,
2013-01-21 14:43:00,75.0,64.0,30.01,WNW,285,6.0,12.0,68,-99.99,,,-99.99,,2013-01-21 19:43:00,
2013-01-21 14:53:00,75.0,64.0,30.00,West,277,7.0,10.0,69,-99.99,,,-99.99,,2013-01-21 19:53:00,
2013-01-21 15:03:00,75.0,64.0,30.00,West,277,7.0,10.0,69,-99.99,,,-99.99,,2013-01-21 20:03:00,
2013-01-21 15:12:00,75.0,65.0,30.00,WNW,294,6.0,11.0,68,-99.99,,,-99.99,,2013-01-21 20:12:00,
2013-01-21 15:23:00,75.0,65.0,30.00,WNW,294,6.0,11.0,68,-99.99,,,-99.99,,2013-01-21 20:23:00,
2013-01-21 15:33:00,75.0,64.0,29.99,WNW,300,7.0,13.0,68,-99.99,,,-99.99,,2013-01-21 20:33:00,
2013-01-21 15:43:00,75.0,64.0,29.99,WNW,300,7.0,13.0,68,-99.99,,,-99.99,,2013-01-21 20:43:00,
2013-01-21 15:53:00,75.0,64.0,30.00,WNW,282,7.0,15.0,67,-99.99,,,-99.99,,2013-01-21 20:53:00,
2013-01-21 16:04:00,75.0,64.0,30.00,WNW,282,7.0,15.0,67,-99.99,,,-99.99,,2013-01-21 21:04:00,
2013-01-21 16:12:00,75.0,64.0,30.00,West,274,8.0,15.0,68,-99.99,,,-99.99,,2013-01-21 21:12:00,
2013-01-21 16:23:00,75.0,64.0,30.00,West,274,8.0,15.0,68,-99.99,,,-99.99,,2013-01-21 21:23:00,
2013-01-21 16:33:00,74.0,64.0,30.00,WNW,285,9.0,17.0,69,-99.99,,,-99.99,,2013-01-21 21:33:00,
2013-01-21 16:43:00,74.0,64.0,30.00,WNW,285,9.0,17.0,69,-99.99,,,-99.99,,2013-01-21 21:43:00,
2013-01-21 16:54:00,71.0,63.0,30.00,WNW,287,8.0,13.0,76,-99.99,,,-99.99,,2013-01-21 21:54:00,
2013-01-21 17:03:00,71.0,63.0,30.00,WNW,287,8.0,13.0,76,-99.99,,,-99.99,,2013-01-21 22:03:00,
2013-01-21 17:13:00,71.0,64.0,30.01,WNW,284,6.0,12.0,77,-99.99,,,-99.99,,2013-01-21 22:13:00,
2013-01-21 17:23:00,71.0,64.0,30.01,WNW,284,6.0,12.0,77,-99.99,,,-99.99,,2013-01-21 22:23:00,
2013-01-21 17:33:00,70.0,64.0,30.01,West,280,7.0,12.0,80,-99.99,,,-99.99,,2013-01-21 22:33:00,
2013-01-21 17:43:00,70.0,64.0,30.01,West,280,7.0,12.0,80,-99.99,,,-99.99,,2013-01-21 22:43:00,
2013-01-21 17:53:00,69.0,63.0,30.02,WNW,289,7.0,12.0,82,-99.99,,,-99.99,,2013-01-21 22:53:00,
2013-01-21 18:03:00,69.0,63.0,30.02,WNW,289,7.0,12.0,82,-99.99,,,-99.99,,2013-01-21 23:03:00,
2013-01-21 18:13:00,69.0,63.0,30.02,WNW,290,8.0,13.0,82,-99.99,,,-99.99,,2013-01-21 23:13:00,
2013-01-21 18:23:00,69.0,63.0,30.02,WNW,290,8.0,13.0,82,-99.99,,,-99.99,,2013-01-21 23:23:00,
2013-01-21 18:33:00,68.0,63.0,30.03,WNW,292,7.0,13.0,84,-99.99,,,-99.99,,2013-01-21 23:33:00,
2013-01-21 18:42:00,68.0,63.0,30.03,WNW,292,7.0,13.0,84,-99.99,,,-99.99,,2013-01-21 23:42:00,
2013-01-21 18:53:00,68.0,63.0,30.04,WNW,294,7.0,13.0,85,-99.99,,,-99.99,,2013-01-21 23:53:00,
2013-01-21 19:03:00,68.0,63.0,30.04,WNW,294,7.0,13.0,85,-99.99,,,-99.99,,2013-01-22 00:03:00,
2013-01-21 19:12:00,68.0,63.0,30.04,WNW,294,6.0,11.0,84,-99.99,,,-99.99,,2013-01-22 00:12:00,
2013-01-21 19:23:00,68.0,63.0,30.04,WNW,294,6.0,11.0,84,-99.99,,,-99.99,,2013-01-22 00:23:00,
2013-01-21 19:33:00,67.0,63.0,30.04,NW,304,6.0,10.0,85,-99.99,,,-99.99,,2013-01-22 00:33:00,
2013-01-21 19:43:00,67.0,63.0,30.04,NW,304,6.0,10.0,85,-99.99,,,-99.99,,2013-01-22 00:43:00,
2013-01-21 19:53:00,66.0,62.0,30.04,WNW,301,4.0,8.0,87,-99.99,,,-99.99,,2013-01-22 00:53:00,
2013-01-21 20:02:00,66.0,62.0,30.04,WNW,301,4.0,8.0,87,-99.99,,,-99.99,,2013-01-22 01:02:00,
2013-01-21 20:12:00,65.0,62.0,30.05,WNW,298,4.0,8.0,87,-99.99,,,-99.99,,2013-01-22 01:12:00,
2013-01-21 20:23:00,65.0,62.0,30.05,WNW,298,4.0,8.0,87,-99.99,,,-99.99,,2013-01-22 01:23:00,
2013-01-21 20:33:00,65.0,61.0,30.05,WNW,301,4.0,7.0,88,-99.99,,,-99.99,,2013-01-22 01:33:00,
2013-01-21 20:43:00,65.0,61.0,30.05,WNW,301,4.0,7.0,88,-99.99,,,-99.99,,2013-01-22 01:43:00,
2013-01-21 20:53:00,64.0,61.0,30.05,WNW,294,3.0,5.0,90,-99.99,,,-99.99,,2013-01-22 01:53:00,
2013-01-21 21:03:00,64.0,61.0,30.05,WNW,294,3.0,5.0,90,-99.99,,,-99.99,,2013-01-22 02:03:00,
2013-01-21 21:12:00,63.0,61.0,30.05,NW,307,3.0,5.0,91,-99.99,,,-99.99,,2013-01-22 02:12:00,
2013-01-21 21:23:00,63.0,61.0,30.05,NW,307,3.0,5.0,91,-99.99,,,-99.99,,2013-01-22 02:23:00,
2013-01-21 21:32:00,62.0,60.0,30.05,WNW,298,2.0,5.0,93,-99.99,,,-99.99,,2013-01-22 02:32:00,
2013-01-21 21:43:00,62.0,60.0,30.05,WNW,298,2.0,5.0,93,-99.99,,,-99.99,,2013-01-22 02:43:00,
2013-01-21 21:53:00,59.0,57.0,30.05,WNW,299,2.0,3.0,93,-99.99,,,-99.99,,2013-01-22 02:53:00,
2013-01-21 22:03:00,59.0,57.0,30.05,WNW,299,2.0,3.0,93,-99.99,,,-99.99,,2013-01-22 03:03:00,
2013-01-21 22:12:00,59.0,57.0,30.06,NW,306,3.0,4.0,95,-99.99,,,-99.99,,2013-01-22 03:12:00,
2013-01-21 22:22:00,59.0,57.0,30.06,NW,306,3.0,4.0,95,-99.99,,,-99.99,,2013-01-22 03:22:00,
2013-01-21 22:33:00,57.0,56.0,30.06,WNW,301,2.0,3.0,95,-99.99,,,-99.99,,2013-01-22 03:33:00,
2013-01-21 22:42:00,57.0,56.0,30.06,WNW,301,2.0,3.0,95,-99.99,,,-99.99,,2013-01-22 03:42:00,
2013-01-21 22:53:00,56.0,54.0,30.07,WNW,292,2.0,3.0,95,-99.99,,,-99.99,,2013-01-22 03:53:00,
2013-01-21 23:03:00,56.0,54.0,30.07,WNW,292,2.0,3.0,95,-99.99,,,-99.99,,2013-01-22 04:03:00,
2013-01-21 23:12:00,55.0,54.0,30.07,WNW,298,3.0,4.0,96,-99.99,,,-99.99,,2013-01-22 04:12:00,
2013-01-21 23:22:00,55.0,54.0,30.07,WNW,298,3.0,4.0,96,-99.99,,,-99.99,,2013-01-22 04:22:00,
2013-01-21 23:33:00,55.0,54.0,30.06,WNW,303,2.0,3.0,96,-99.99,,,-99.99,,2013-01-22 04:33:00,
2013-01-21 23:42:00,55.0,54.0,30.06,WNW,303,2.0,3.0,96,-99.99,,,-99.99,,2013-01-22 04:42:00,
2013-01-21 23:53:00,55.0,54.0,30.07,NW,309,2.0,4.0,97,-99.99,,,-99.99,,2013-01-22 04:53:00,